TimeEST,TemperatureF,Dew PointF,Humidity,Sea Level PressureIn,VisibilityMPH,Wind Direction,Wind SpeedMPH,Gust SpeedMPH,PrecipitationIn,Events,Conditions,WindDirDegrees,DateUTC
12:53 AM,55.0,35.1,47,29.98,10.0,SW,8.1,-,N/A,,Clear,220,2013-12-21 05:53:00
1:53 AM,57.0,36.0,45,29.97,10.0,SSW,8.1,-,N/A,,Clear,200,2013-12-21 06:53:00
2:53 AM,55.9,37.0,49,29.97,10.0,SSW,8.1,-,N/A,,Clear,200,2013-12-21 07:53:00
3:53 AM,51.1,36.0,56,29.96,10.0,South,8.1,-,N/A,,Clear,180,2013-12-21 08:53:00
4:53 AM,52.0,36.0,54,29.97,10.0,SSW,5.8,-,N/A,,Clear,210,2013-12-21 09:53:00
5:53 AM,52.0,36.0,54,29.96,10.0,SSW,8.1,-,N/A,,Clear,200,2013-12-21 10:53:00
6:53 AM,51.1,36.0,56,29.96,10.0,South,5.8,-,N/A,,Clear,190,2013-12-21 11:53:00
7:53 AM,50.0,37.0,61,29.97,10.0,SSE,8.1,-,N/A,,Partly Cloudy,160,2013-12-21 12:53:00
8:53 AM,54.0,37.9,55,29.97,10.0,SSE,9.2,-,N/A,,Overcast,160,2013-12-21 13:53:00
9:53 AM,55.9,39.0,53,29.96,10.0,South,4.6,-,0.00,,Overcast,170,2013-12-21 14:53:00
10:53 AM,57.9,41.0,53,29.95,10.0,SE,6.9,-,N/A,,Overcast,140,2013-12-21 15:53:00
11:53 AM,60.1,41.0,49,29.93,10.0,South,8.1,-,N/A,,Mostly Cloudy,170,2013-12-21 16:53:00
12:53 PM,64.0,43.0,46,29.89,10.0,South,5.8,-,N/A,,Clear,170,2013-12-21 17:53:00
1:53 PM,64.9,44.1,47,29.88,10.0,South,6.9,-,N/A,,Clear,180,2013-12-21 18:53:00
2:53 PM,66.9,46.9,49,29.87,10.0,SE,8.1,-,N/A,,Clear,140,2013-12-21 19:53:00
3:53 PM,66.0,46.9,50,29.87,10.0,SSE,6.9,-,N/A,,Clear,150,2013-12-21 20:53:00
4:53 PM,63.0,48.0,58,29.89,10.0,SE,5.8,-,N/A,,Clear,140,2013-12-21 21:53:00
5:53 PM,63.0,48.9,60,29.88,10.0,South,9.2,-,N/A,,Clear,180,2013-12-21 22:53:00
6:53 PM,62.1,50.0,65,29.90,10.0,SSE,6.9,-,N/A,,Clear,160,2013-12-21 23:53:00
7:53 PM,61.0,51.1,70,29.90,10.0,South,3.5,-,N/A,,Partly Cloudy,180,2013-12-22 00:53:00
8:53 PM,62.1,52.0,70,29.90,10.0,South,8.1,-,N/A,,Clear,170,2013-12-22 01:53:00
9:53 PM,63.0,54.0,72,29.88,10.0,SSE,10.4,-,N/A,,Clear,160,2013-12-22 02:53:00
10:53 PM,64.0,54.0,70,29.87,10.0,South,4.6,-,N/A,,Clear,190,2013-12-22 03:53:00
11:53 PM,64.9,55.0,70,29.84,10.0,SSE,8.1,-,N/A,,Clear,160,2013-12-22 04:53:00